Volver al catálogo

STARLINK-3609

ActivoComunicacionesVLEO
NORAD 51808·PAYLOAD·🇺🇸 United States

Lanzado Feb 25, 2022 desde Vandenberg Space Force Base

Loading…

Próximos Pases (próximas 24 horas)

TLE

ActualizadoSource: CelesTrak SupGP

Época: Sep 15, 2026, 02:42 UTC

1 51808C 22017AS  26258.11298611 -.00013044  00000+0 -37325-3 0  2580
2 51808  53.1577 196.6067 0001268  86.3619 299.1520 15.35400315    13

Sigue STARLINK-3609 en tiempo real con AllMySat

Download on the App Store